Starlink 30164

operational
NORAD ID: 57500 Int'l Des: 2023-113 Owner: SPXS Country: US Constellation: starlink
LEOCIRCULAR

About Starlink 30164

Description loading...

Live Position

Loading 3D Globe...

Upcoming Passes

Altitude History

Altitude vs Time

uPlot chart will show altitude changes over time

Two-Line Element Set

1 57500U 23113F 25307.12707663 .00001109 00000-0 97167-4 0 9991
2 57500 43.0042 344.8895 0001233 262.9399 97.1303 15.02538037124624
Epoch: Nov 3, 2025 • Age: 34 hours

Current Status

Altitude 559.2 km
Velocity 7.59 km/s
Sub-Earth Point 22.64°N, 111.29°W
Launch Date Aug 7, 2023
Age 2.2 years
Type internet

Technical Details

Classification Payload
Mass 730.00 kg
Dry Mass 700.00 kg
Total Mass 730.00 kg
Length 0.30 m
Diameter 4.10 m
Span 29.00 m
Shape Box + pan
Manufacturer SPXS
Bus Type Starlink V2M
Phase Status In Orbit
Owner/State SPXS/US

Large Constellations

Loading constellations...